Station Historical Data
Daily Summary for November 21, 2017 Units:  English    Metric   Both
« Previous Day
Next Day »
Daily Weekly Monthly Yearly Custom
  High: Low: Average:
Temperature: 54.7 °F 38.3 °F 46 °F
Dew Point: 40.5 °F 23.6 °F 31.2 °F
Humidity: 87% 39% 57%
Wind Speed: 18.0mph 0.0mph 7.4mph
Wind Gust: 29.0mph - -
Wind- - SW
Pressure: 29.91 in 29.73 in -
Precipitation: 0.09 in    
Historical Graphs
 
 
Tabular Data for November 21, 2017
Time Temperature Dew Point Pressure Wind Wind Speed Wind Gust Humidity Rainfall Rate (Hourly)
00:04 38.6 °F 26.3 °F 29.90 in SW 5.0 mph 11.0 mph 61% 0.00 in
00:09 38.5 °F 26.2 °F 29.90 in SSW 5.0 mph 8.0 mph 61% 0.00 in
00:34 38.3 °F 26.4 °F 29.90 in SSW 5.0 mph 12.0 mph 62% 0.00 in
00:39 38.3 °F 26.0 °F 29.90 in SSW 2.0 mph 8.0 mph 61% 0.00 in
00:44 38.3 °F 26.0 °F 29.90 in SW 4.0 mph 7.0 mph 61% 0.00 in
00:49 38.3 °F 26.0 °F 29.90 in SSW 5.0 mph 9.0 mph 61% 0.00 in
00:54 38.3 °F 26.0 °F 29.90 in SSW 4.0 mph 13.0 mph 61% 0.00 in
00:59 38.4 °F 26.1 °F 29.90 in SSW 5.0 mph 13.0 mph 61% 0.00 in
01:04 38.5 °F 26.2 °F 29.89 in SW 5.0 mph 9.0 mph 61% 0.00 in
01:14 38.4 °F 26.1 °F 29.89 in SW 3.0 mph 10.0 mph 61% 0.00 in
01:19 38.3 °F 25.6 °F 29.89 in South 3.0 mph 10.0 mph 60% 0.00 in
01:24 38.3 °F 25.6 °F 29.89 in South 3.0 mph 8.0 mph 60% 0.00 in
01:29 38.4 °F 25.7 °F 29.89 in SSW 5.0 mph 11.0 mph 60% 0.00 in
01:34 38.6 °F 25.9 °F 29.89 in SSW 5.0 mph 12.0 mph 60% 0.00 in
01:39 38.8 °F 25.7 °F 29.89 in SSW 6.0 mph 12.0 mph 59% 0.00 in
01:44 38.8 °F 25.7 °F 29.88 in SSW 6.0 mph 13.0 mph 59% 0.00 in
01:54 39.0 °F 25.5 °F 29.88 in SSW 8.0 mph 12.0 mph 58% 0.00 in
01:59 39.0 °F 25.5 °F 29.88 in SSW 6.0 mph 13.0 mph 58% 0.00 in
02:04 39.1 °F 25.6 °F 29.88 in SSW 7.0 mph 14.0 mph 58% 0.00 in
02:09 39.1 °F 25.1 °F 29.88 in SSW 6.0 mph 14.0 mph 57% 0.00 in
02:14 39.0 °F 25.0 °F 29.88 in SSW 6.0 mph 13.0 mph 57% 0.00 in
02:19 39.1 °F 25.1 °F 29.88 in SW 3.0 mph 10.0 mph 57% 0.00 in
02:34 39.1 °F 25.1 °F 29.88 in SSW 5.0 mph 11.0 mph 57% 0.00 in
02:39 39.2 °F 24.8 °F 29.88 in SSW 4.0 mph 11.0 mph 56% 0.00 in
02:44 39.1 °F 24.7 °F 29.88 in SSW 4.0 mph 9.0 mph 56% 0.00 in
02:49 39.1 °F 24.7 °F 29.88 in SSW 4.0 mph 9.0 mph 56% 0.00 in
02:54 39.1 °F 24.7 °F 29.88 in SSW 5.0 mph 12.0 mph 56% 0.00 in
02:59 39.0 °F 24.6 °F 29.88 in SSW 4.0 mph 8.0 mph 56% 0.00 in
03:04 39.0 °F 24.6 °F 29.87 in SSW 4.0 mph 12.0 mph 56% 0.00 in
03:14 39.1 °F 24.7 °F 29.87 in South 4.0 mph 13.0 mph 56% 0.00 in
03:19 39.2 °F 24.8 °F 29.86 in South 6.0 mph 12.0 mph 56% 0.00 in
03:24 39.1 °F 24.3 °F 29.86 in South 4.0 mph 13.0 mph 55% 0.00 in
03:29 39.2 °F 24.4 °F 29.86 in SW 3.0 mph 15.0 mph 55% 0.00 in
03:39 39.2 °F 24.4 °F 29.85 in SSW 6.0 mph 13.0 mph 55% 0.00 in
03:44 39.3 °F 24.5 °F 29.85 in SSW 6.0 mph 12.0 mph 55% 0.00 in
03:49 39.3 °F 24.0 °F 29.85 in SSW 6.0 mph 12.0 mph 54% 0.00 in
03:59 39.3 °F 24.0 °F 29.85 in SSW 7.0 mph 9.0 mph 54% 0.00 in
04:04 39.4 °F 24.1 °F 29.85 in SSW 3.0 mph 10.0 mph 54% 0.00 in
04:09 39.3 °F 24.0 °F 29.85 in South 6.0 mph 12.0 mph 54% 0.00 in
04:14 39.1 °F 23.8 °F 29.85 in SSW 4.0 mph 12.0 mph 54% 0.00 in
04:29 39.5 °F 23.8 °F 29.84 in SSW 6.0 mph 11.0 mph 53% 0.00 in
04:34 39.4 °F 23.7 °F 29.84 in SSW 5.0 mph 12.0 mph 53% 0.00 in
04:44 39.5 °F 23.8 °F 29.84 in SSW 9.0 mph 12.0 mph 53% 0.00 in
04:49 39.6 °F 23.9 °F 29.84 in SSW 4.0 mph 11.0 mph 53% 0.00 in
04:54 39.7 °F 24.0 °F 29.84 in SSW 2.0 mph 11.0 mph 53% 0.00 in
04:59 39.8 °F 24.0 °F 29.84 in SSW 7.0 mph 14.0 mph 53% 0.00 in
05:04 39.8 °F 23.6 °F 29.84 in South 5.0 mph 10.0 mph 52% 0.00 in
05:09 39.9 °F 23.7 °F 29.84 in SW 11.0 mph 12.0 mph 52% 0.00 in
05:14 40.1 °F 23.9 °F 29.84 in SSE 4.0 mph 14.0 mph 52% 0.00 in
05:19 40.2 °F 24.0 °F 29.84 in SSW 4.0 mph 16.0 mph 52% 0.00 in
05:24 40.2 °F 24.0 °F 29.83 in SSW 6.0 mph 16.0 mph 52% 0.00 in
05:29 40.3 °F 23.6 °F 29.83 in SSW 6.0 mph 14.0 mph 51% 0.00 in
05:44 40.5 °F 23.8 °F 29.83 in SSW 6.0 mph 13.0 mph 51% 0.00 in
05:59 40.8 °F 24.1 °F 29.82 in SSW 7.0 mph 16.0 mph 51% 0.00 in
06:14 40.9 °F 24.1 °F 29.82 in SSW 7.0 mph 15.0 mph 51% 0.00 in
06:19 40.9 °F 24.1 °F 29.82 in South 6.0 mph 11.0 mph 51% 0.00 in
06:24 40.7 °F 24.0 °F 29.82 in WSW 12.0 mph 12.0 mph 51% 0.00 in
06:29 40.8 °F 24.1 °F 29.82 in SSW 7.0 mph 14.0 mph 51% 0.00 in
06:34 40.8 °F 24.1 °F 29.82 in SSW 7.0 mph 14.0 mph 51% 0.00 in
06:39 40.7 °F 24.0 °F 29.81 in SSW 6.0 mph 14.0 mph 51% 0.00 in
06:44 40.8 °F 24.1 °F 29.81 in SSW 7.0 mph 14.0 mph 51% 0.00 in
06:59 40.7 °F 24.0 °F 29.81 in South 10.0 mph 14.0 mph 51% 0.00 in
07:14 40.7 °F 24.0 °F 29.80 in South 11.0 mph 17.0 mph 51% 0.00 in
07:19 40.8 °F 24.1 °F 29.80 in SSW 9.0 mph 16.0 mph 51% 0.00 in
07:24 40.8 °F 24.1 °F 29.80 in SW 7.0 mph 15.0 mph 51% 0.00 in
07:29 40.8 °F 24.1 °F 29.80 in SSW 8.0 mph 15.0 mph 51% 0.00 in
07:39 40.7 °F 24.0 °F 29.80 in South 7.0 mph 18.0 mph 51% 0.00 in
07:44 40.9 °F 24.1 °F 29.80 in SSW 6.0 mph 15.0 mph 51% 0.00 in
08:04 41.2 °F 24.4 °F 29.79 in South 9.0 mph 15.0 mph 51% 0.00 in
08:09 41.4 °F 24.6 °F 29.79 in SSW 7.0 mph 17.0 mph 51% 0.00 in
08:14 41.6 °F 24.8 °F 29.79 in South 3.0 mph 13.0 mph 51% 0.00 in
08:19 41.9 °F 24.6 °F 29.79 in SW 8.0 mph 13.0 mph 50% 0.00 in
08:24 42.4 °F 24.6 °F 29.79 in SSW 5.0 mph 15.0 mph 49% 0.00 in
08:34 42.9 °F 25.0 °F 29.79 in SW 7.0 mph 14.0 mph 49% 0.00 in
08:39 43.1 °F 24.7 °F 29.78 in SSW 6.0 mph 21.0 mph 48% 0.00 in
08:49 43.7 °F 24.8 °F 29.78 in SSW 7.0 mph 15.0 mph 47% 0.00 in
08:59 44.3 °F 25.3 °F 29.78 in WSW 9.0 mph 16.0 mph 47% 0.00 in
09:04 44.5 °F 25.0 °F 29.78 in South 9.0 mph 17.0 mph 46% 0.00 in
09:09 44.8 °F 25.8 °F 29.77 in SSW 6.0 mph 23.0 mph 47% 0.00 in
09:14 45.1 °F 25.5 °F 29.77 in SSW 8.0 mph 23.0 mph 46% 0.00 in
09:19 45.4 °F 25.3 °F 29.76 in SSW 8.0 mph 19.0 mph 45% 0.00 in
09:24 45.8 °F 26.2 °F 29.76 in SSW 9.0 mph 20.0 mph 46% 0.00 in
09:29 46.2 °F 26.0 °F 29.76 in SSW 8.0 mph 20.0 mph 45% 0.00 in
09:34 46.5 °F 26.3 °F 29.77 in SW 13.0 mph 16.0 mph 45% 0.00 in
09:39 46.6 °F 25.8 °F 29.77 in SW 12.0 mph 16.0 mph 44% 0.00 in
09:44 47.2 °F 26.9 °F 29.77 in SSW 8.0 mph 16.0 mph 45% 0.00 in
09:49 47.4 °F 26.6 °F 29.77 in WSW 7.0 mph 18.0 mph 44% 0.00 in
10:04 48.2 °F 27.3 °F 29.76 in SSW 13.0 mph 20.0 mph 44% 0.00 in
10:09 48.5 °F 27.6 °F 29.77 in SSE 7.0 mph 20.0 mph 44% 0.00 in
10:19 49.1 °F 27.0 °F 29.77 in SSW 8.0 mph 16.0 mph 42% 0.00 in
10:24 49.4 °F 27.8 °F 29.77 in SSW 8.0 mph 16.0 mph 43% 0.00 in
10:29 49.6 °F 28.0 °F 29.77 in SSW 9.0 mph 21.0 mph 43% 0.00 in
10:34 49.4 °F 27.2 °F 29.77 in SSW 8.0 mph 15.0 mph 42% 0.00 in
10:39 49.6 °F 27.4 °F 29.77 in SSW 17.0 mph 26.0 mph 42% 0.00 in
10:44 49.7 °F 27.5 °F 29.77 in SSW 14.0 mph 19.0 mph 42% 0.00 in
10:49 50.1 °F 29.0 °F 29.77 in SW 11.0 mph 14.0 mph 44% 0.00 in
10:54 50.5 °F 28.2 °F 29.77 in SW 8.0 mph 17.0 mph 42% 0.00 in
11:04 50.9 °F 28.6 °F 29.77 in SW 10.0 mph 22.0 mph 42% 0.00 in
11:09 51.2 °F 28.9 °F 29.77 in SSE 10.0 mph 21.0 mph 42% 0.00 in
11:14 51.5 °F 29.7 °F 29.76 in SSW 9.0 mph 21.0 mph 43% 0.00 in
11:19 51.7 °F 29.3 °F 29.76 in SW 9.0 mph 21.0 mph 42% 0.00 in
11:39 52.2 °F 28.6 °F 29.75 in SW 6.0 mph 24.0 mph 40% 0.00 in
11:44 52.2 °F 29.8 °F 29.75 in SW 4.0 mph 16.0 mph 42% 0.00 in
11:49 52.4 °F 29.4 °F 29.74 in SSW 8.0 mph 20.0 mph 41% 0.00 in
11:54 52.9 °F 29.2 °F 29.74 in SW 10.0 mph 23.0 mph 40% 0.00 in
11:59 53.2 °F 29.5 °F 29.74 in SW 12.0 mph 24.0 mph 40% 0.00 in
12:04 53.3 °F 29.6 °F 29.74 in SW 13.0 mph 24.0 mph 40% 0.00 in
12:09 53.4 °F 30.3 °F 29.74 in SW 13.0 mph 28.0 mph 41% 0.00 in
12:19 53.7 °F 29.3 °F 29.73 in SW 11.0 mph 23.0 mph 39% 0.00 in
12:24 53.7 °F 29.9 °F 29.74 in WSW 15.0 mph 21.0 mph 40% 0.00 in
12:29 53.7 °F 29.3 °F 29.74 in SW 13.0 mph 29.0 mph 39% 0.00 in
12:34 53.8 °F 29.4 °F 29.74 in WSW 14.0 mph 22.0 mph 39% 0.00 in
12:44 54.0 °F 29.6 °F 29.74 in West 18.0 mph 27.0 mph 39% 0.00 in
12:49 53.9 °F 30.1 °F 29.74 in SW 10.0 mph 27.0 mph 40% 0.00 in
12:54 54.1 °F 29.7 °F 29.74 in SW 14.0 mph 22.0 mph 39% 0.00 in
13:09 54.5 °F 30.6 °F 29.75 in SW 12.0 mph 22.0 mph 40% 0.00 in
13:14 54.6 °F 30.7 °F 29.75 in SW 11.0 mph 20.0 mph 40% 0.00 in
13:19 54.7 °F 31.4 °F 29.75 in SW 10.0 mph 21.0 mph 41% 0.00 in
13:34 54.4 °F 34.0 °F 29.76 in SW 11.0 mph 23.0 mph 46% 0.00 in
13:39 54.3 °F 33.9 °F 29.75 in SW 10.0 mph 23.0 mph 46% 0.00 in
13:44 54.2 °F 33.9 °F 29.76 in WSW 9.0 mph 19.0 mph 46% 0.00 in
13:49 54.2 °F 34.4 °F 29.76 in SSW 11.0 mph 18.0 mph 47% 0.00 in
13:54 54.3 °F 34.5 °F 29.75 in SSW 11.0 mph 22.0 mph 47% 0.00 in
13:59 54.2 °F 34.4 °F 29.75 in WSW 6.0 mph 22.0 mph 47% 0.00 in
14:04 54.4 °F 34.0 °F 29.76 in SW 9.0 mph 22.0 mph 46% 0.00 in
14:09 54.4 °F 34.6 °F 29.76 in SW 9.0 mph 19.0 mph 47% 0.00 in
14:14 54.1 °F 34.3 °F 29.76 in SW 9.0 mph 19.0 mph 47% 0.00 in
14:29 53.7 °F 35.0 °F 29.76 in SW 10.0 mph 18.0 mph 49% 0.00 in
14:44 53.4 °F 35.7 °F 29.76 in WSW 10.0 mph 22.0 mph 51% 0.00 in
14:49 53.4 °F 36.2 °F 29.76 in WNW 9.0 mph 17.0 mph 52% 0.00 in
14:54 53.3 °F 36.1 °F 29.77 in SW 14.0 mph 19.0 mph 52% 0.00 in
14:59 53.1 °F 36.4 °F 29.77 in SW 10.0 mph 20.0 mph 53% 0.00 in
15:04 53.0 °F 36.3 °F 29.77 in WSW 10.0 mph 23.0 mph 53% 0.00 in
15:19 53.2 °F 34.5 °F 29.77 in WSW 11.0 mph 19.0 mph 49% 0.00 in
15:24 53.1 °F 34.4 °F 29.77 in WSW 12.0 mph 22.0 mph 49% 0.00 in
15:29 52.8 °F 34.7 °F 29.78 in WSW 11.0 mph 22.0 mph 50% 0.00 in
15:34 52.6 °F 35.0 °F 29.78 in WSW 11.0 mph 23.0 mph 51% 0.00 in
15:39 52.5 °F 34.9 °F 29.78 in West 9.0 mph 17.0 mph 51% 0.00 in
15:44 52.3 °F 35.2 °F 29.78 in WSW 9.0 mph 19.0 mph 52% 0.00 in
15:54 52.0 °F 35.4 °F 29.78 in SW 9.0 mph 16.0 mph 53% 0.00 in
15:59 51.7 °F 35.1 °F 29.79 in SSW 7.0 mph 18.0 mph 53% 0.00 in
16:04 51.6 °F 35.9 °F 29.79 in West 7.0 mph 17.0 mph 55% 0.00 in
16:19 51.2 °F 36.9 °F 29.80 in WSW 9.0 mph 21.0 mph 58% 0.00 in
16:24 51.1 °F 36.8 °F 29.80 in WSW 9.0 mph 19.0 mph 58% 0.00 in
16:29 50.9 °F 37.1 °F 29.80 in WSW 7.0 mph 17.0 mph 59% 0.00 in
16:34 50.8 °F 37.0 °F 29.80 in WSW 9.0 mph 19.0 mph 59% 0.00 in
16:39 50.7 °F 37.3 °F 29.81 in WSW 9.0 mph 19.0 mph 60% 0.00 in
16:44 50.7 °F 37.7 °F 29.81 in WSW 9.0 mph 18.0 mph 61% 0.00 in
16:49 50.6 °F 37.6 °F 29.81 in WSW 6.0 mph 17.0 mph 61% 0.00 in
16:54 50.5 °F 38.0 °F 29.81 in WSW 8.0 mph 16.0 mph 62% 0.00 in
16:59 50.5 °F 38.4 °F 29.81 in WSW 3.0 mph 16.0 mph 63% 0.00 in
17:04 50.4 °F 38.7 °F 29.81 in WSW 10.0 mph 20.0 mph 64% 0.00 in
17:09 50.3 °F 39.0 °F 29.81 in SW 12.0 mph 16.0 mph 65% 0.00 in
17:19 50.3 °F 38.6 °F 29.81 in West 8.0 mph 17.0 mph 64% 0.00 in
17:24 50.3 °F 38.2 °F 29.81 in WSW 8.0 mph 17.0 mph 63% 0.00 in
17:29 50.4 °F 38.3 °F 29.81 in WSW 7.0 mph 19.0 mph 63% 0.00 in
17:34 50.3 °F 38.6 °F 29.81 in WSW 7.0 mph 19.0 mph 64% 0.00 in
17:39 50.2 °F 38.9 °F 29.81 in WSW 7.0 mph 15.0 mph 65% 0.00 in
17:49 50.0 °F 39.5 °F 29.82 in WSW 3.0 mph 12.0 mph 67% 0.00 in
17:59 49.9 °F 39.8 °F 29.82 in SW 13.0 mph 14.0 mph 68% 0.00 in
18:14 49.6 °F 39.8 °F 29.83 in WSW 7.0 mph 13.0 mph 69% 0.00 in
18:19 49.4 °F 40.0 °F 29.83 in WSW 9.0 mph 12.0 mph 70% 0.00 in
18:24 49.4 °F 40.0 °F 29.83 in WSW 6.0 mph 13.0 mph 70% 0.00 in
18:29 49.4 °F 40.4 °F 29.83 in WSW 6.0 mph 16.0 mph 71% 0.00 in
18:34 49.3 °F 40.3 °F 29.83 in WSW 6.0 mph 16.0 mph 71% 0.00 in
18:44 49.0 °F 40.0 °F 29.84 in West 4.0 mph 8.0 mph 71% 0.00 in
18:54 49.2 °F 40.2 °F 29.83 in WSW 7.0 mph 14.0 mph 71% 0.00 in
18:59 49.3 °F 39.9 °F 29.84 in West 14.0 mph 17.0 mph 70% 0.00 in
19:09 49.6 °F 39.5 °F 29.84 in WSW 7.0 mph 17.0 mph 68% 0.00 in
19:14 49.6 °F 39.5 °F 29.84 in WSW 8.0 mph 17.0 mph 68% 0.00 in
19:19 49.7 °F 39.6 °F 29.84 in WSW 7.0 mph 16.0 mph 68% 0.00 in
19:39 49.9 °F 40.5 °F 29.84 in WSW 7.0 mph 18.0 mph 70% 0.00 in
19:44 49.8 °F 40.4 °F 29.84 in WSW 8.0 mph 18.0 mph 70% 0.00 in
19:49 49.8 °F 40.4 °F 29.84 in WNW 5.0 mph 17.0 mph 70% 0.00 in
19:54 49.8 °F 40.4 °F 29.84 in SW 6.0 mph 16.0 mph 70% 0.00 in
19:59 49.8 °F 40.4 °F 29.84 in WSW 3.0 mph 14.0 mph 70% 0.00 in
20:04 49.8 °F 40.4 °F 29.84 in West 12.0 mph 15.0 mph 70% 0.00 in
20:09 49.8 °F 40.0 °F 29.84 in WSW 8.0 mph 19.0 mph 69% 0.00 in
20:14 49.9 °F 40.1 °F 29.84 in WSW 10.0 mph 21.0 mph 69% 0.00 in
20:19 49.9 °F 40.1 °F 29.84 in WSW 9.0 mph 21.0 mph 69% 0.00 in
20:29 49.9 °F 40.1 °F 29.84 in WSW 11.0 mph 19.0 mph 69% 0.00 in
20:39 49.9 °F 40.1 °F 29.84 in WSW 7.0 mph 19.0 mph 69% 0.00 in
20:44 49.9 °F 40.5 °F 29.84 in WSW 10.0 mph 19.0 mph 70% 0.00 in
20:49 49.7 °F 40.3 °F 29.84 in West 8.0 mph 24.0 mph 70% 0.00 in
20:59 49.5 °F 40.5 °F 29.84 in West 7.0 mph 14.0 mph 71% 0.00 in
21:04 49.3 °F 40.3 °F 29.85 in WNW 5.0 mph 18.0 mph 71% 0.00 in
21:09 49.0 °F 40.0 °F 29.85 in West 7.0 mph 18.0 mph 71% 0.00 in
21:14 48.6 °F 39.6 °F 29.85 in West 9.0 mph 18.0 mph 71% 0.00 in
21:19 48.3 °F 39.3 °F 29.85 in West 8.0 mph 18.0 mph 71% 0.00 in
21:39 47.5 °F 39.6 °F 29.86 in West 3.0 mph 13.0 mph 74% 0.00 in
21:44 47.0 °F 39.5 °F 29.86 in WSW 3.0 mph 21.0 mph 75% 0.00 in
21:49 46.5 °F 39.3 °F 29.86 in West 7.0 mph 21.0 mph 76% 0.00 in
21:54 46.1 °F 39.3 °F 29.86 in West 7.0 mph 17.0 mph 77% 0.01 in
21:59 45.6 °F 39.1 °F 29.86 in West 7.0 mph 18.0 mph 78% 0.01 in
22:19 44.6 °F 39.4 °F 29.87 in West 4.0 mph 9.0 mph 82% 0.04 in
22:24 44.3 °F 39.2 °F 29.88 in West 5.0 mph 12.0 mph 82% 0.04 in
22:29 44.1 °F 39.3 °F 29.88 in West 5.0 mph 12.0 mph 83% 0.05 in
22:34 43.9 °F 39.1 °F 29.88 in West 5.0 mph 12.0 mph 83% 0.06 in
22:44 43.2 °F 38.7 °F 29.88 in West 7.0 mph 12.0 mph 84% 0.06 in
22:54 41.8 °F 37.3 °F 29.88 in WNW 7.0 mph 14.0 mph 84% 0.06 in
23:04 41.3 °F 37.1 °F 29.89 in WNW 6.0 mph 12.0 mph 85% 0.05 in
23:14 41.1 °F 36.9 °F 29.89 in West 2.0 mph 7.0 mph 85% 0.04 in
23:19 41.1 °F 37.2 °F 29.90 in WNW 2.0 mph 5.0 mph 86% 0.03 in
23:24 41.0 °F 37.1 °F 29.90 in WNW 4.0 mph 7.0 mph 86% 0.04 in
23:29 40.9 °F 37.0 °F 29.90 in West 3.0 mph 7.0 mph 86% 0.03 in
23:34 40.8 °F 37.2 °F 29.90 in West 4.0 mph 8.0 mph 87% 0.02 in
23:39 40.6 °F 37.0 °F 29.91 in NW 3.0 mph 5.0 mph 87% 0.03 in
23:44 40.5 °F 36.9 °F 29.91 in Calm   5.0 mph 87% 0.03 in
23:49 40.3 °F 36.7 °F 29.91 in WNW 4.0 mph 6.0 mph 87% 0.03 in
Buffalo, New York, USA
Compliments of Weather Underground - 2 mb